Time,TemperatureF,DewpointF,PressureIn,WindDirection,WindDirectionDegrees,WindSpeedMPH,WindSpeedGustMPH,Humidity,HourlyPrecipIn,Conditions,Clouds,dailyrainin,SoftwareType,DateUTC
2013-05-01 00:00:00,64.1,62.9,30.09,NNE,32,2.0,2.0,96,0.00,,---,0.14,VWS V14.01,2013-05-01 04:00:00,
2013-05-01 00:01:00,64.1,62.9,30.09,NNE,33,0.0,2.0,96,0.00,,---,0.00,VWS V14.01,2013-05-01 04:01:00,
2013-05-01 00:06:00,64.2,63.0,30.09,NE,43,1.0,2.0,96,0.00,,---,0.00,VWS V14.01,2013-05-01 04:06:00,
2013-05-01 00:11:00,64.4,63.2,30.10,NNE,23,2.0,2.0,96,0.00,,---,0.00,VWS V14.01,2013-05-01 04:11:00,
2013-05-01 00:16:00,64.6,63.4,30.10,North,11,3.0,4.0,96,0.00,,---,0.00,VWS V14.01,2013-05-01 04:16:00,
2013-05-01 00:21:00,64.8,63.3,30.10,NNE,24,2.0,3.0,95,0.00,,---,0.00,VWS V14.01,2013-05-01 04:21:00,
2013-05-01 00:26:00,64.7,63.2,30.10,North,359,1.0,2.0,95,0.00,,---,0.00,VWS V14.01,2013-05-01 04:26:00,
2013-05-01 00:31:00,64.7,62.9,30.10,NNE,22,3.0,4.0,94,0.00,,---,0.00,VWS V14.01,2013-05-01 04:31:00,
2013-05-01 00:36:00,64.7,62.9,30.10,NNE,20,2.0,4.0,94,0.00,,---,0.00,VWS V14.01,2013-05-01 04:36:00,
2013-05-01 00:41:00,64.8,63.0,30.10,NNE,20,2.0,4.0,94,0.00,,---,0.00,VWS V14.01,2013-05-01 04:41:00,
2013-05-01 00:46:00,64.9,62.8,30.10,NNE,17,4.0,7.0,93,0.00,,---,0.00,VWS V14.01,2013-05-01 04:46:00,
2013-05-01 00:51:00,64.9,62.8,30.10,North,10,4.0,5.0,93,0.00,,---,0.00,VWS V14.01,2013-05-01 04:51:00,
2013-05-01 00:56:00,64.9,62.8,30.10,NNE,16,3.0,3.0,93,0.00,,---,0.00,VWS V14.01,2013-05-01 04:56:00,
2013-05-01 01:01:00,64.9,62.8,30.10,NE,40,2.0,5.0,93,0.00,,---,0.00,VWS V14.01,2013-05-01 05:01:00,
2013-05-01 01:06:00,65.0,62.9,30.10,NE,43,4.0,7.0,93,0.00,,---,0.00,VWS V14.01,2013-05-01 05:06:00,
2013-05-01 01:11:00,65.3,63.2,30.10,NNE,30,3.0,5.0,93,0.00,,---,0.00,VWS V14.01,2013-05-01 05:11:00,
2013-05-01 01:16:00,65.3,62.9,30.10,NNE,12,3.0,5.0,92,0.00,,---,0.00,VWS V14.01,2013-05-01 05:16:00,
2013-05-01 01:21:00,65.2,62.8,30.10,NNE,15,3.0,7.0,92,0.00,,---,0.00,VWS V14.01,2013-05-01 05:21:00,
2013-05-01 01:26:00,65.1,62.4,30.10,NE,37,7.0,8.0,91,0.00,,---,0.00,VWS V14.01,2013-05-01 05:26:00,
2013-05-01 01:31:00,65.2,62.5,30.09,NNE,28,7.0,8.0,91,0.00,,---,0.00,VWS V14.01,2013-05-01 05:31:00,
2013-05-01 01:36:00,65.3,62.3,30.09,NE,42,9.0,9.0,90,0.00,,---,0.00,VWS V14.01,2013-05-01 05:36:00,
2013-05-01 01:41:00,65.3,62.3,30.09,NE,46,8.0,8.0,90,0.00,,---,0.00,VWS V14.01,2013-05-01 05:41:00,
2013-05-01 01:46:00,65.3,62.0,30.09,NE,53,6.0,9.0,89,0.00,,---,0.00,VWS V14.01,2013-05-01 05:46:00,
2013-05-01 01:51:00,65.3,62.3,30.09,NE,51,8.0,9.0,90,0.00,,---,0.00,VWS V14.01,2013-05-01 05:51:00,
2013-05-01 01:56:00,65.2,61.9,30.09,NE,39,8.0,11.0,89,0.00,,---,0.00,VWS V14.01,2013-05-01 05:56:00,
2013-05-01 02:01:00,65.1,62.1,30.08,ENE,58,9.0,11.0,90,0.00,,---,0.00,VWS V14.01,2013-05-01 06:01:00,
2013-05-01 02:06:00,65.1,62.1,30.08,NE,46,7.0,9.0,90,0.00,,---,0.00,VWS V14.01,2013-05-01 06:06:00,
2013-05-01 02:11:00,65.0,62.0,30.08,NE,41,5.0,8.0,90,0.01,,---,0.01,VWS V14.01,2013-05-01 06:11:00,
2013-05-01 02:16:00,64.9,62.2,30.08,NE,43,7.0,10.0,91,0.01,,---,0.01,VWS V14.01,2013-05-01 06:16:00,
2013-05-01 02:21:00,64.8,62.1,30.08,NE,35,9.0,12.0,91,0.01,,---,0.01,VWS V14.01,2013-05-01 06:21:00,
2013-05-01 02:26:00,64.7,62.0,30.08,NE,46,9.0,11.0,91,0.01,,---,0.01,VWS V14.01,2013-05-01 06:26:00,
2013-05-01 02:31:00,64.6,61.9,30.08,NE,40,7.0,11.0,91,0.01,,---,0.01,VWS V14.01,2013-05-01 06:31:00,
2013-05-01 02:36:00,64.6,62.2,30.08,NE,46,5.0,7.0,92,0.01,,---,0.01,VWS V14.01,2013-05-01 06:36:00,
2013-05-01 02:41:00,64.5,62.1,30.08,NE,51,7.0,10.0,92,0.01,,---,0.01,VWS V14.01,2013-05-01 06:41:00,
2013-05-01 02:46:00,64.5,62.4,30.08,ENE,69,8.0,8.0,93,0.01,,---,0.01,VWS V14.01,2013-05-01 06:46:00,
2013-05-01 02:51:00,64.4,62.3,30.07,NE,45,5.0,7.0,93,0.01,,---,0.01,VWS V14.01,2013-05-01 06:51:00,
2013-05-01 02:56:00,64.3,62.2,30.07,NNE,25,5.0,7.0,93,0.01,,---,0.01,VWS V14.01,2013-05-01 06:56:00,
2013-05-01 03:01:00,64.3,62.2,30.07,ENE,67,5.0,6.0,93,0.01,,---,0.01,VWS V14.01,2013-05-01 07:01:00,
2013-05-01 03:06:00,64.2,62.1,30.08,NE,53,5.0,5.0,93,0.01,,---,0.01,VWS V14.01,2013-05-01 07:06:00,
2013-05-01 03:11:00,64.1,62.3,30.07,NE,41,6.0,6.0,94,0.01,,---,0.01,VWS V14.01,2013-05-01 07:11:00,
2013-05-01 03:16:00,64.0,62.2,30.07,NE,47,6.0,8.0,94,0.00,,---,0.01,VWS V14.01,2013-05-01 07:16:00,
2013-05-01 03:21:00,63.9,62.1,30.07,NE,47,5.0,7.0,94,0.00,,---,0.01,VWS V14.01,2013-05-01 07:21:00,
2013-05-01 03:26:00,63.9,62.1,30.07,NE,43,6.0,9.0,94,0.00,,---,0.01,VWS V14.01,2013-05-01 07:26:00,
2013-05-01 03:31:00,63.9,62.1,30.07,NE,44,7.0,7.0,94,0.00,,---,0.01,VWS V14.01,2013-05-01 07:31:00,
2013-05-01 03:36:00,63.9,62.1,30.07,NNE,26,8.0,9.0,94,0.00,,---,0.01,VWS V14.01,2013-05-01 07:36:00,
2013-05-01 03:41:00,63.9,62.4,30.06,NE,54,8.0,10.0,95,0.00,,---,0.01,VWS V14.01,2013-05-01 07:41:00,
2013-05-01 03:46:00,63.8,62.3,30.06,NE,53,8.0,9.0,95,0.00,,---,0.01,VWS V14.01,2013-05-01 07:46:00,
2013-05-01 03:51:00,63.9,62.7,30.06,NNE,32,5.0,6.0,96,0.00,,---,0.01,VWS V14.01,2013-05-01 07:51:00,
2013-05-01 03:56:00,63.8,62.3,30.06,NE,34,7.0,10.0,95,0.00,,---,0.01,VWS V14.01,2013-05-01 07:56:00,
2013-05-01 04:01:00,63.8,62.6,30.06,ENE,64,8.0,10.0,96,0.00,,---,0.01,VWS V14.01,2013-05-01 08:01:00,
2013-05-01 04:06:00,63.7,62.5,30.06,NE,44,6.0,11.0,96,0.00,,---,0.01,VWS V14.01,2013-05-01 08:06:00,
2013-05-01 04:11:00,63.7,62.5,30.06,NNE,32,7.0,7.0,96,0.00,,---,0.01,VWS V14.01,2013-05-01 08:11:00,
2013-05-01 04:16:00,63.7,62.5,30.06,NNE,19,3.0,5.0,96,0.00,,---,0.01,VWS V14.01,2013-05-01 08:16:00,
2013-05-01 04:21:00,63.5,62.3,30.06,NNE,17,6.0,6.0,96,0.00,,---,0.01,VWS V14.01,2013-05-01 08:21:00,
2013-05-01 04:26:00,63.3,62.1,30.06,NNE,22,9.0,9.0,96,0.00,,---,0.01,VWS V14.01,2013-05-01 08:26:00,
2013-05-01 04:31:00,63.3,62.1,30.06,NNE,30,7.0,9.0,96,0.00,,---,0.01,VWS V14.01,2013-05-01 08:31:00,
2013-05-01 04:36:00,63.2,62.0,30.06,NNE,13,8.0,9.0,96,0.00,,---,0.01,VWS V14.01,2013-05-01 08:36:00,
2013-05-01 04:41:00,63.2,62.0,30.06,NNE,33,4.0,10.0,96,0.00,,---,0.01,VWS V14.01,2013-05-01 08:41:00,
2013-05-01 04:46:00,63.2,62.0,30.06,NE,39,11.0,14.0,96,0.00,,---,0.01,VWS V14.01,2013-05-01 08:46:00,
2013-05-01 04:51:00,63.2,62.0,30.06,NNE,30,11.0,11.0,96,0.00,,---,0.01,VWS V14.01,2013-05-01 08:51:00,
2013-05-01 04:56:00,63.1,61.7,30.06,NE,45,8.0,10.0,95,0.00,,---,0.01,VWS V14.01,2013-05-01 08:56:00,
2013-05-01 05:01:00,63.1,61.7,30.06,NNE,29,8.0,9.0,95,0.00,,---,0.01,VWS V14.01,2013-05-01 09:01:00,
2013-05-01 05:06:00,63.1,61.7,30.06,NE,36,5.0,9.0,95,0.00,,---,0.01,VWS V14.01,2013-05-01 09:06:00,
2013-05-01 05:11:00,63.0,61.5,30.06,NE,48,7.0,11.0,95,0.00,,---,0.01,VWS V14.01,2013-05-01 09:11:00,
2013-05-01 05:16:00,63.0,61.5,30.06,NE,46,5.0,7.0,95,0.00,,---,0.01,VWS V14.01,2013-05-01 09:16:00,
2013-05-01 05:21:00,63.0,61.5,30.06,NNE,19,5.0,6.0,95,0.00,,---,0.01,VWS V14.01,2013-05-01 09:21:00,
2013-05-01 05:26:00,62.9,61.5,30.06,NE,39,8.0,9.0,95,0.00,,---,0.01,VWS V14.01,2013-05-01 09:26:00,
2013-05-01 05:31:00,62.9,61.5,30.06,NE,46,10.0,11.0,95,0.00,,---,0.01,VWS V14.01,2013-05-01 09:31:00,
2013-05-01 05:36:00,62.8,61.3,30.06,NE,36,9.0,9.0,95,0.00,,---,0.01,VWS V14.01,2013-05-01 09:36:00,
2013-05-01 05:41:00,62.8,61.3,30.06,NE,42,4.0,6.0,95,0.00,,---,0.01,VWS V14.01,2013-05-01 09:41:00,
2013-05-01 05:46:00,62.7,61.2,30.06,NE,54,6.0,12.0,95,0.00,,---,0.01,VWS V14.01,2013-05-01 09:46:00,
2013-05-01 05:51:00,62.6,61.2,30.06,NE,34,11.0,13.0,95,0.00,,---,0.01,VWS V14.01,2013-05-01 09:51:00,
2013-05-01 05:56:00,62.6,61.2,30.06,NE,44,6.0,10.0,95,0.00,,---,0.01,VWS V14.01,2013-05-01 09:56:00,
2013-05-01 06:01:00,62.5,61.0,30.06,NE,45,7.0,10.0,95,0.00,,---,0.01,VWS V14.01,2013-05-01 10:01:00,
2013-05-01 06:06:00,62.4,61.0,30.06,NE,43,9.0,11.0,95,0.00,,---,0.01,VWS V14.01,2013-05-01 10:06:00,
2013-05-01 06:11:00,62.3,60.8,30.06,NE,45,8.0,11.0,95,0.00,,---,0.01,VWS V14.01,2013-05-01 10:11:00,
2013-05-01 06:16:00,62.2,60.8,30.06,NNE,27,13.0,13.0,95,0.00,,---,0.01,VWS V14.01,2013-05-01 10:16:00,
2013-05-01 06:21:00,62.1,60.7,30.06,NE,41,8.0,10.0,95,0.00,,---,0.01,VWS V14.01,2013-05-01 10:21:00,
2013-05-01 06:26:00,62.0,60.6,30.07,NNE,30,9.0,11.0,95,0.00,,---,0.01,VWS V14.01,2013-05-01 10:26:00,
2013-05-01 06:31:00,61.9,60.5,30.07,NE,35,7.0,12.0,95,0.00,,---,0.01,VWS V14.01,2013-05-01 10:31:00,
2013-05-01 06:36:00,61.8,60.4,30.07,NNE,31,8.0,11.0,95,0.00,,---,0.01,VWS V14.01,2013-05-01 10:36:00,
2013-05-01 06:41:00,61.8,60.4,30.08,NNE,27,8.0,12.0,95,0.00,,---,0.01,VWS V14.01,2013-05-01 10:41:00,
2013-05-01 06:46:00,61.7,60.3,30.07,NE,53,7.0,10.0,95,0.00,,---,0.01,VWS V14.01,2013-05-01 10:46:00,
2013-05-01 06:51:00,61.6,60.2,30.08,NNE,32,9.0,14.0,95,0.00,,---,0.01,VWS V14.01,2013-05-01 10:51:00,
2013-05-01 06:56:00,61.6,60.2,30.08,NE,43,5.0,10.0,95,0.00,,---,0.01,VWS V14.01,2013-05-01 10:56:00,
2013-05-01 07:01:00,61.5,60.1,30.08,ENE,58,5.0,11.0,95,0.00,,---,0.01,VWS V14.01,2013-05-01 11:01:00,
2013-05-01 07:06:00,61.6,60.2,30.08,NE,44,7.0,14.0,95,0.00,,---,0.01,VWS V14.01,2013-05-01 11:06:00,
2013-05-01 07:11:00,61.5,59.8,30.08,NE,41,6.0,14.0,94,0.00,,---,0.01,VWS V14.01,2013-05-01 11:11:00,
2013-05-01 07:16:00,61.5,60.1,30.08,NE,41,8.0,9.0,95,0.00,,---,0.01,VWS V14.01,2013-05-01 11:16:00,
2013-05-01 07:21:00,61.5,60.1,30.09,NE,41,7.0,10.0,95,0.00,,---,0.01,VWS V14.01,2013-05-01 11:21:00,
2013-05-01 07:26:00,61.6,60.2,30.09,NNE,23,9.0,11.0,95,0.00,,---,0.01,VWS V14.01,2013-05-01 11:26:00,
2013-05-01 07:31:00,61.5,59.8,30.10,ENE,64,9.0,14.0,94,0.00,,---,0.01,VWS V14.01,2013-05-01 11:31:00,
2013-05-01 07:36:00,61.5,59.8,30.11,ENE,65,8.0,15.0,94,0.00,,---,0.01,VWS V14.01,2013-05-01 11:36:00,
2013-05-01 07:41:00,61.5,60.1,30.10,ENE,58,9.0,9.0,95,0.00,,---,0.01,VWS V14.01,2013-05-01 11:41:00,
2013-05-01 07:46:00,61.4,59.7,30.10,ENE,61,6.0,11.0,94,0.00,,---,0.01,VWS V14.01,2013-05-01 11:46:00,
2013-05-01 07:51:00,61.4,59.7,30.11,NE,41,8.0,16.0,94,0.00,,---,0.01,VWS V14.01,2013-05-01 11:51:00,
2013-05-01 07:56:00,61.4,60.0,30.10,NNE,23,5.0,10.0,95,0.00,,---,0.01,VWS V14.01,2013-05-01 11:56:00,
2013-05-01 08:01:00,61.4,59.7,30.11,NNE,33,10.0,13.0,94,0.00,,---,0.01,VWS V14.01,2013-05-01 12:01:00,
2013-05-01 08:06:00,61.6,60.2,30.11,NE,46,10.0,12.0,95,0.00,,---,0.01,VWS V14.01,2013-05-01 12:06:00,
2013-05-01 08:11:00,61.6,60.2,30.11,NE,48,5.0,8.0,95,0.00,,---,0.01,VWS V14.01,2013-05-01 12:11:00,
2013-05-01 08:16:00,61.6,60.2,30.11,NE,39,10.0,10.0,95,0.00,,---,0.01,VWS V14.01,2013-05-01 12:16:00,
2013-05-01 08:21:00,61.6,60.2,30.11,ENE,63,10.0,14.0,95,0.00,,---,0.01,VWS V14.01,2013-05-01 12:21:00,
2013-05-01 08:26:00,61.7,60.3,30.11,NE,53,4.0,7.0,95,0.00,,---,0.01,VWS V14.01,2013-05-01 12:26:00,
2013-05-01 08:31:00,61.7,60.0,30.12,East,81,9.0,11.0,94,0.00,,---,0.01,VWS V14.01,2013-05-01 12:31:00,
2013-05-01 08:36:00,61.8,60.1,30.12,ENE,58,6.0,10.0,94,0.00,,---,0.01,VWS V14.01,2013-05-01 12:36:00,
2013-05-01 08:41:00,62.0,60.3,30.12,ENE,60,6.0,7.0,94,0.00,,---,0.01,VWS V14.01,2013-05-01 12:41:00,
2013-05-01 08:46:00,62.1,60.4,30.13,NNE,29,10.0,10.0,94,0.00,,---,0.01,VWS V14.01,2013-05-01 12:46:00,
2013-05-01 08:51:00,62.3,60.2,30.13,North,354,7.0,7.0,93,0.00,,---,0.01,VWS V14.01,2013-05-01 12:51:00,
2013-05-01 08:56:00,62.5,60.5,30.13,NNE,27,9.0,10.0,93,0.00,,---,0.01,VWS V14.01,2013-05-01 12:56:00,
2013-05-01 09:01:00,62.6,60.5,30.13,NE,36,4.0,8.0,93,0.00,,---,0.01,VWS V14.01,2013-05-01 13:01:00,
2013-05-01 09:06:00,62.7,60.3,30.13,ENE,57,6.0,12.0,92,0.00,,---,0.01,VWS V14.01,2013-05-01 13:06:00,
2013-05-01 09:11:00,62.8,60.5,30.14,NNE,19,8.0,11.0,92,0.00,,---,0.01,VWS V14.01,2013-05-01 13:11:00,
2013-05-01 09:16:00,62.8,60.5,30.13,NE,46,9.0,12.0,92,0.00,,---,0.01,VWS V14.01,2013-05-01 13:16:00,
2013-05-01 09:21:00,63.1,60.7,30.14,NNE,31,10.0,12.0,92,0.00,,---,0.01,VWS V14.01,2013-05-01 13:21:00,
2013-05-01 09:26:00,63.0,60.3,30.14,NE,36,9.0,11.0,91,0.00,,---,0.01,VWS V14.01,2013-05-01 13:26:00,
2013-05-01 09:31:00,63.0,60.6,30.14,NNE,20,5.0,7.0,92,0.00,,---,0.01,VWS V14.01,2013-05-01 13:31:00,
2013-05-01 09:36:00,63.0,60.0,30.14,NNE,25,8.0,13.0,90,0.00,,---,0.01,VWS V14.01,2013-05-01 13:36:00,
2013-05-01 09:41:00,62.8,60.1,30.15,NNE,15,9.0,10.0,91,0.00,,---,0.01,VWS V14.01,2013-05-01 13:41:00,
2013-05-01 09:46:00,62.9,60.2,30.15,NE,38,7.0,10.0,91,0.00,,---,0.01,VWS V14.01,2013-05-01 13:46:00,
2013-05-01 09:51:00,63.0,60.3,30.15,ENE,63,8.0,8.0,91,0.00,,---,0.01,VWS V14.01,2013-05-01 13:51:00,
2013-05-01 09:56:00,63.1,60.1,30.16,NNE,27,7.0,10.0,90,0.00,,---,0.01,VWS V14.01,2013-05-01 13:56:00,
2013-05-01 10:01:00,63.3,60.6,30.16,NNE,25,9.0,9.0,91,0.00,,---,0.01,VWS V14.01,2013-05-01 14:01:00,
2013-05-01 10:06:00,63.4,60.1,30.16,NE,48,11.0,13.0,89,0.00,,---,0.01,VWS V14.01,2013-05-01 14:06:00,
2013-05-01 10:11:00,63.5,60.5,30.16,NE,35,9.0,9.0,90,0.00,,---,0.01,VWS V14.01,2013-05-01 14:11:00,
2013-05-01 10:16:00,63.9,60.6,30.16,NE,34,3.0,11.0,89,0.00,,---,0.01,VWS V14.01,2013-05-01 14:16:00,
2013-05-01 10:21:00,63.8,60.5,30.16,North,9,8.0,11.0,89,0.00,,---,0.01,VWS V14.01,2013-05-01 14:21:00,
2013-05-01 10:26:00,63.9,60.3,30.16,NE,48,10.0,11.0,88,0.00,,---,0.01,VWS V14.01,2013-05-01 14:26:00,
2013-05-01 10:31:00,63.9,60.3,30.17,NNE,32,10.0,10.0,88,0.00,,---,0.01,VWS V14.01,2013-05-01 14:31:00,
2013-05-01 10:36:00,64.2,60.9,30.16,North,8,9.0,9.0,89,0.00,,---,0.01,VWS V14.01,2013-05-01 14:36:00,
2013-05-01 10:41:00,63.9,60.0,30.17,North,351,9.0,11.0,87,0.00,,---,0.01,VWS V14.01,2013-05-01 14:41:00,
2013-05-01 10:46:00,63.8,59.9,30.16,NNE,16,9.0,10.0,87,0.00,,---,0.01,VWS V14.01,2013-05-01 14:46:00,
2013-05-01 10:51:00,63.9,60.0,30.16,NE,39,7.0,11.0,87,0.00,,---,0.01,VWS V14.01,2013-05-01 14:51:00,
2013-05-01 10:56:00,64.2,59.9,30.16,NNE,22,10.0,13.0,86,0.00,,---,0.01,VWS V14.01,2013-05-01 14:56:00,
2013-05-01 11:01:00,64.5,59.9,30.16,North,357,9.0,12.0,85,0.00,,---,0.01,VWS V14.01,2013-05-01 15:01:00,
2013-05-01 11:06:00,64.6,60.3,30.16,NNE,23,6.0,8.0,86,0.00,,---,0.01,VWS V14.01,2013-05-01 15:06:00,
2013-05-01 11:11:00,64.6,60.3,30.16,NNE,18,7.0,10.0,86,0.00,,---,0.01,VWS V14.01,2013-05-01 15:11:00,
2013-05-01 11:16:00,64.5,59.9,30.16,NNE,33,8.0,12.0,85,0.00,,---,0.01,VWS V14.01,2013-05-01 15:16:00,
2013-05-01 11:21:00,64.6,60.0,30.16,NNE,20,13.0,13.0,85,0.00,,---,0.01,VWS V14.01,2013-05-01 15:21:00,
2013-05-01 11:26:00,64.4,59.5,30.16,NNE,33,12.0,13.0,84,0.00,,---,0.01,VWS V14.01,2013-05-01 15:26:00,
2013-05-01 11:31:00,64.4,60.1,30.16,North,358,15.0,16.0,86,0.00,,---,0.01,VWS V14.01,2013-05-01 15:31:00,
2013-05-01 11:36:00,64.0,59.4,30.16,NNE,22,10.0,14.0,85,0.00,,---,0.01,VWS V14.01,2013-05-01 15:36:00,
2013-05-01 11:41:00,63.8,59.9,30.15,NE,44,10.0,15.0,87,0.00,,---,0.01,VWS V14.01,2013-05-01 15:41:00,
2013-05-01 11:46:00,63.8,59.5,30.15,NNE,33,10.0,11.0,86,0.00,,---,0.01,VWS V14.01,2013-05-01 15:46:00,
2013-05-01 11:51:00,63.8,59.5,30.16,NNE,25,10.0,12.0,86,0.00,,---,0.01,VWS V14.01,2013-05-01 15:51:00,
2013-05-01 11:56:00,63.9,59.3,30.15,NNE,31,11.0,13.0,85,0.00,,---,0.01,VWS V14.01,2013-05-01 15:56:00,
2013-05-01 12:01:00,64.0,59.4,30.15,NNE,31,13.0,16.0,85,0.00,,---,0.01,VWS V14.01,2013-05-01 16:01:00,
2013-05-01 12:06:00,63.4,59.2,30.16,North,357,10.0,14.0,86,0.00,,---,0.01,VWS V14.01,2013-05-01 16:06:00,
2013-05-01 12:11:00,63.2,59.0,30.16,North,358,11.0,18.0,86,0.00,,---,0.01,VWS V14.01,2013-05-01 16:11:00,
2013-05-01 12:16:00,63.1,58.8,30.16,NE,36,12.0,15.0,86,0.00,,---,0.01,VWS V14.01,2013-05-01 16:16:00,
2013-05-01 12:21:00,63.2,59.0,30.16,NNE,12,9.0,12.0,86,0.00,,---,0.01,VWS V14.01,2013-05-01 16:21:00,
2013-05-01 12:26:00,63.3,58.7,30.17,NE,48,8.0,11.0,85,0.00,,---,0.01,VWS V14.01,2013-05-01 16:26:00,
2013-05-01 12:31:00,63.8,59.2,30.17,NNE,27,4.0,12.0,85,0.00,,---,0.01,VWS V14.01,2013-05-01 16:31:00,
2013-05-01 12:36:00,64.1,59.2,30.17,NNE,24,9.0,14.0,84,0.00,,---,0.01,VWS V14.01,2013-05-01 16:36:00,
2013-05-01 12:41:00,64.0,58.7,30.17,NNE,18,13.0,15.0,83,0.00,,---,0.01,VWS V14.01,2013-05-01 16:41:00,
2013-05-01 12:46:00,63.8,58.5,30.17,NNE,30,11.0,15.0,83,0.00,,---,0.01,VWS V14.01,2013-05-01 16:46:00,
2013-05-01 12:51:00,63.9,58.6,30.17,North,11,10.0,13.0,83,0.00,,---,0.01,VWS V14.01,2013-05-01 16:51:00,
2013-05-01 12:56:00,63.9,59.0,30.17,North,354,5.0,9.0,84,0.00,,---,0.01,VWS V14.01,2013-05-01 16:56:00,
2013-05-01 13:01:00,64.2,58.9,30.16,NE,39,12.0,14.0,83,0.00,,---,0.01,VWS V14.01,2013-05-01 17:01:00,
2013-05-01 13:06:00,64.4,59.1,30.16,NE,40,10.0,12.0,83,0.00,,---,0.01,VWS V14.01,2013-05-01 17:06:00,
2013-05-01 13:11:00,64.3,59.0,30.16,NNE,32,8.0,12.0,83,0.00,,---,0.01,VWS V14.01,2013-05-01 17:11:00,
2013-05-01 13:16:00,64.3,58.7,30.17,NNE,30,8.0,12.0,82,0.00,,---,0.01,VWS V14.01,2013-05-01 17:16:00,
2013-05-01 13:21:00,64.6,59.3,30.16,North,356,7.0,10.0,83,0.00,,---,0.01,VWS V14.01,2013-05-01 17:21:00,
2013-05-01 13:26:00,65.2,59.6,30.16,NE,36,7.0,9.0,82,0.00,,---,0.01,VWS V14.01,2013-05-01 17:26:00,
2013-05-01 13:31:00,65.4,59.4,30.16,North,4,16.0,16.0,81,0.00,,---,0.01,VWS V14.01,2013-05-01 17:31:00,
2013-05-01 13:36:00,65.4,59.4,30.16,North,11,10.0,11.0,81,0.00,,---,0.01,VWS V14.01,2013-05-01 17:36:00,
2013-05-01 13:41:00,65.4,59.1,30.17,North,4,8.0,12.0,80,0.00,,---,0.01,VWS V14.01,2013-05-01 17:41:00,
2013-05-01 13:46:00,65.5,59.5,30.16,NNW,340,8.0,11.0,81,0.00,,---,0.01,VWS V14.01,2013-05-01 17:46:00,
2013-05-01 13:51:00,65.7,59.4,30.16,NE,44,12.0,12.0,80,0.00,,---,0.01,VWS V14.01,2013-05-01 17:51:00,
2013-05-01 13:56:00,65.7,59.4,30.16,NNE,29,12.0,13.0,80,0.00,,---,0.01,VWS V14.01,2013-05-01 17:56:00,
2013-05-01 14:01:00,65.9,59.6,30.16,North,358,12.0,13.0,80,0.00,,---,0.01,VWS V14.01,2013-05-01 18:01:00,
2013-05-01 14:06:00,66.0,59.7,30.16,North,358,8.0,10.0,80,0.00,,---,0.01,VWS V14.01,2013-05-01 18:06:00,
2013-05-01 14:11:00,66.3,60.0,30.16,NE,53,12.0,12.0,80,0.00,,---,0.01,VWS V14.01,2013-05-01 18:11:00,
2013-05-01 14:16:00,66.6,59.5,30.16,NNE,24,7.0,13.0,78,0.00,,---,0.01,VWS V14.01,2013-05-01 18:16:00,
2013-05-01 14:21:00,66.8,59.4,30.15,NNE,33,9.0,12.0,77,0.00,,---,0.01,VWS V14.01,2013-05-01 18:21:00,
2013-05-01 14:26:00,67.1,59.7,30.15,NE,46,6.0,8.0,77,0.00,,---,0.01,VWS V14.01,2013-05-01 18:26:00,
2013-05-01 14:31:00,67.4,60.0,30.15,NE,46,10.0,10.0,77,0.00,,---,0.01,VWS V14.01,2013-05-01 18:31:00,
2013-05-01 14:36:00,67.4,59.6,30.15,NNE,30,7.0,11.0,76,0.00,,---,0.01,VWS V14.01,2013-05-01 18:36:00,
2013-05-01 14:41:00,67.4,59.6,30.15,NNE,16,10.0,13.0,76,0.00,,---,0.01,VWS V14.01,2013-05-01 18:41:00,
2013-05-01 14:46:00,67.5,60.4,30.15,NE,47,9.0,9.0,78,0.00,,---,0.01,VWS V14.01,2013-05-01 18:46:00,
2013-05-01 14:51:00,67.8,59.6,30.15,NNE,20,10.0,11.0,75,0.00,,---,0.01,VWS V14.01,2013-05-01 18:51:00,
2013-05-01 14:56:00,68.3,60.1,30.14,NE,39,9.0,14.0,75,0.00,,---,0.01,VWS V14.01,2013-05-01 18:56:00,
2013-05-01 15:01:00,68.4,60.2,30.14,ENE,62,13.0,13.0,75,0.00,,---,0.01,VWS V14.01,2013-05-01 19:01:00,
2013-05-01 15:06:00,68.8,60.6,30.14,NNE,19,9.0,11.0,75,0.00,,---,0.01,VWS V14.01,2013-05-01 19:06:00,
2013-05-01 15:11:00,68.8,59.8,30.14,NE,41,11.0,12.0,73,0.00,,---,0.01,VWS V14.01,2013-05-01 19:11:00,
2013-05-01 15:16:00,68.8,60.6,30.14,NNE,29,12.0,13.0,75,0.00,,---,0.01,VWS V14.01,2013-05-01 19:16:00,
2013-05-01 15:21:00,68.8,60.2,30.14,NNE,27,9.0,11.0,74,0.00,,---,0.01,VWS V14.01,2013-05-01 19:21:00,
2013-05-01 15:26:00,69.1,60.8,30.14,NE,37,7.0,9.0,75,0.00,,---,0.01,VWS V14.01,2013-05-01 19:26:00,
2013-05-01 15:31:00,69.4,61.1,30.13,NE,44,14.0,14.0,75,0.00,,---,0.01,VWS V14.01,2013-05-01 19:31:00,
2013-05-01 15:36:00,69.5,60.5,30.13,NNE,17,9.0,13.0,73,0.00,,---,0.01,VWS V14.01,2013-05-01 19:36:00,
2013-05-01 15:41:00,69.7,61.4,30.13,NNE,24,8.0,8.0,75,0.00,,---,0.01,VWS V14.01,2013-05-01 19:41:00,
2013-05-01 15:46:00,69.9,61.2,30.12,NE,38,8.0,10.0,74,0.00,,---,0.01,VWS V14.01,2013-05-01 19:46:00,
2013-05-01 15:51:00,70.0,61.0,30.12,NE,45,11.0,13.0,73,0.00,,---,0.01,VWS V14.01,2013-05-01 19:51:00,
2013-05-01 15:56:00,69.9,60.9,30.12,NE,34,12.0,15.0,73,0.00,,---,0.01,VWS V14.01,2013-05-01 19:56:00,
2013-05-01 16:01:00,70.0,61.0,30.12,NE,41,7.0,12.0,73,0.00,,---,0.01,VWS V14.01,2013-05-01 20:01:00,
2013-05-01 16:06:00,70.0,61.7,30.12,NE,36,15.0,15.0,75,0.00,,---,0.01,VWS V14.01,2013-05-01 20:06:00,
2013-05-01 16:11:00,69.8,61.5,30.12,NNE,29,11.0,12.0,75,0.00,,---,0.01,VWS V14.01,2013-05-01 20:11:00,
2013-05-01 16:16:00,69.9,61.2,30.12,NNE,25,8.0,11.0,74,0.00,,---,0.01,VWS V14.01,2013-05-01 20:16:00,
2013-05-01 16:21:00,69.9,61.2,30.11,NE,50,9.0,14.0,74,0.00,,---,0.01,VWS V14.01,2013-05-01 20:21:00,
2013-05-01 16:26:00,70.2,60.8,30.12,NNE,23,9.0,11.0,72,0.00,,---,0.01,VWS V14.01,2013-05-01 20:26:00,
2013-05-01 16:31:00,70.5,60.7,30.12,NE,38,11.0,12.0,71,0.00,,---,0.01,VWS V14.01,2013-05-01 20:31:00,
2013-05-01 16:36:00,70.4,60.6,30.12,North,11,8.0,14.0,71,0.00,,---,0.01,VWS V14.01,2013-05-01 20:36:00,
2013-05-01 16:41:00,70.4,60.6,30.12,NNE,29,12.0,14.0,71,0.00,,---,0.01,VWS V14.01,2013-05-01 20:41:00,
2013-05-01 16:46:00,70.2,60.8,30.12,NE,42,12.0,14.0,72,0.00,,---,0.01,VWS V14.01,2013-05-01 20:46:00,
2013-05-01 16:51:00,70.3,61.2,30.11,NNE,13,7.0,12.0,73,0.00,,---,0.01,VWS V14.01,2013-05-01 20:51:00,
2013-05-01 16:56:00,70.5,61.8,30.12,NNE,29,8.0,11.0,74,0.00,,---,0.01,VWS V14.01,2013-05-01 20:56:00,
2013-05-01 17:01:00,70.7,62.0,30.12,NE,41,12.0,12.0,74,0.00,,---,0.01,VWS V14.01,2013-05-01 21:01:00,
2013-05-01 17:06:00,70.5,60.7,30.12,ENE,60,8.0,13.0,71,0.00,,---,0.01,VWS V14.01,2013-05-01 21:06:00,
2013-05-01 17:11:00,70.5,61.4,30.11,North,8,9.0,9.0,73,0.00,,---,0.01,VWS V14.01,2013-05-01 21:11:00,
2013-05-01 17:16:00,70.5,61.4,30.11,NNE,17,11.0,15.0,73,0.00,,---,0.01,VWS V14.01,2013-05-01 21:16:00,
2013-05-01 17:21:00,70.2,60.8,30.12,NNE,25,14.0,14.0,72,0.00,,---,0.01,VWS V14.01,2013-05-01 21:21:00,
2013-05-01 17:26:00,70.3,61.2,30.12,NNE,16,13.0,13.0,73,0.00,,---,0.01,VWS V14.01,2013-05-01 21:26:00,
2013-05-01 17:31:00,70.3,61.2,30.11,NNE,32,5.0,10.0,73,0.00,,---,0.01,VWS V14.01,2013-05-01 21:31:00,
2013-05-01 17:36:00,70.3,61.2,30.11,NNE,27,8.0,8.0,73,0.00,,---,0.01,VWS V14.01,2013-05-01 21:36:00,
2013-05-01 17:41:00,70.4,61.3,30.11,NE,34,10.0,10.0,73,0.00,,---,0.01,VWS V14.01,2013-05-01 21:41:00,
2013-05-01 17:46:00,70.4,61.7,30.11,NNE,28,9.0,12.0,74,0.00,,---,0.01,VWS V14.01,2013-05-01 21:46:00,
2013-05-01 17:51:00,70.6,61.9,30.11,NNE,31,5.0,9.0,74,0.00,,---,0.01,VWS V14.01,2013-05-01 21:51:00,
2013-05-01 17:56:00,70.6,61.5,30.11,NE,42,3.0,7.0,73,0.00,,---,0.01,VWS V14.01,2013-05-01 21:56:00,
2013-05-01 18:01:00,70.7,61.2,30.12,NE,40,8.0,10.0,72,0.00,,---,0.01,VWS V14.01,2013-05-01 22:01:00,
2013-05-01 18:06:00,70.7,61.2,30.11,NNE,13,10.0,12.0,72,0.00,,---,0.01,VWS V14.01,2013-05-01 22:06:00,
2013-05-01 18:11:00,70.6,61.5,30.11,NNE,26,11.0,14.0,73,0.00,,---,0.01,VWS V14.01,2013-05-01 22:11:00,
2013-05-01 18:16:00,70.6,61.9,30.11,ENE,60,9.0,9.0,74,0.00,,---,0.01,VWS V14.01,2013-05-01 22:16:00,
2013-05-01 18:21:00,70.6,61.9,30.11,ENE,67,5.0,5.0,74,0.00,,---,0.01,VWS V14.01,2013-05-01 22:21:00,
2013-05-01 18:26:00,70.5,63.0,30.11,NE,49,2.0,3.0,77,0.00,,---,0.01,VWS V14.01,2013-05-01 22:26:00,
2013-05-01 18:31:00,70.3,63.1,30.11,ENE,68,2.0,10.0,78,0.00,,---,0.01,VWS V14.01,2013-05-01 22:31:00,
2013-05-01 18:36:00,70.3,62.0,30.11,NE,35,8.0,8.0,75,0.00,,---,0.01,VWS V14.01,2013-05-01 22:36:00,
2013-05-01 18:41:00,70.4,62.5,30.11,ENE,67,6.0,6.0,76,0.00,,---,0.01,VWS V14.01,2013-05-01 22:41:00,
2013-05-01 18:46:00,70.3,63.5,30.11,ENE,75,5.0,6.0,79,0.00,,---,0.01,VWS V14.01,2013-05-01 22:46:00,
2013-05-01 18:51:00,70.0,63.2,30.11,ENE,72,6.0,7.0,79,0.00,,---,0.01,VWS V14.01,2013-05-01 22:51:00,
2013-05-01 18:56:00,69.8,63.4,30.10,East,81,3.0,6.0,80,0.00,,---,0.01,VWS V14.01,2013-05-01 22:56:00,
2013-05-01 19:01:00,69.7,63.3,30.11,ENE,63,6.0,6.0,80,0.00,,---,0.01,VWS V14.01,2013-05-01 23:01:00,
2013-05-01 19:06:00,69.7,63.6,30.11,ENE,76,5.0,6.0,81,0.00,,---,0.01,VWS V14.01,2013-05-01 23:06:00,
2013-05-01 19:11:00,69.6,63.5,30.11,ENE,75,2.0,3.0,81,0.00,,---,0.01,VWS V14.01,2013-05-01 23:11:00,
2013-05-01 19:16:00,69.5,63.4,30.11,ENE,69,2.0,4.0,81,0.00,,---,0.01,VWS V14.01,2013-05-01 23:16:00,
2013-05-01 19:21:00,69.6,63.9,30.11,East,84,2.0,4.0,82,0.00,,---,0.01,VWS V14.01,2013-05-01 23:21:00,
2013-05-01 19:26:00,69.5,63.4,30.11,ENE,63,1.0,3.0,81,0.00,,---,0.01,VWS V14.01,2013-05-01 23:26:00,
2013-05-01 19:31:00,69.5,63.4,30.11,East,86,3.0,3.0,81,0.00,,---,0.01,VWS V14.01,2013-05-01 23:31:00,
2013-05-01 19:36:00,69.3,63.9,30.11,ENE,68,1.0,6.0,83,0.00,,---,0.01,VWS V14.01,2013-05-01 23:36:00,
2013-05-01 19:41:00,69.0,63.6,30.11,ENE,74,5.0,5.0,83,0.00,,---,0.01,VWS V14.01,2013-05-01 23:41:00,
2013-05-01 19:46:00,68.8,63.4,30.12,ENE,68,4.0,5.0,83,0.00,,---,0.01,VWS V14.01,2013-05-01 23:46:00,
2013-05-01 19:51:00,68.7,64.0,30.12,ENE,64,5.0,5.0,85,0.00,,---,0.01,VWS V14.01,2013-05-01 23:51:00,
2013-05-01 19:56:00,68.6,63.9,30.12,East,82,3.0,3.0,85,0.00,,---,0.01,VWS V14.01,2013-05-01 23:56:00,
2013-05-01 20:01:00,68.4,63.7,30.12,ENE,67,4.0,7.0,85,0.00,,---,0.01,VWS V14.01,2013-05-02 00:01:00,
2013-05-01 20:06:00,68.2,63.5,30.12,East,89,9.0,9.0,85,0.00,,---,0.01,VWS V14.01,2013-05-02 00:06:00,
2013-05-01 20:11:00,68.0,63.3,30.12,NE,53,8.0,10.0,85,0.00,,---,0.01,VWS V14.01,2013-05-02 00:11:00,
2013-05-01 20:16:00,67.9,63.2,30.12,ENE,63,7.0,8.0,85,0.00,,---,0.01,VWS V14.01,2013-05-02 00:16:00,
2013-05-01 20:21:00,67.8,63.1,30.12,ENE,67,6.0,9.0,85,0.00,,---,0.01,VWS V14.01,2013-05-02 00:21:00,
2013-05-01 20:26:00,67.8,63.1,30.13,ENE,68,7.0,9.0,85,0.00,,---,0.01,VWS V14.01,2013-05-02 00:26:00,
2013-05-01 20:31:00,67.7,63.4,30.12,East,83,6.0,6.0,86,0.00,,---,0.01,VWS V14.01,2013-05-02 00:31:00,
2013-05-01 20:36:00,67.6,63.3,30.13,ENE,63,6.0,7.0,86,0.00,,---,0.01,VWS V14.01,2013-05-02 00:36:00,
2013-05-01 20:41:00,67.6,63.3,30.13,ENE,69,7.0,8.0,86,0.00,,---,0.01,VWS V14.01,2013-05-02 00:41:00,
2013-05-01 20:46:00,67.6,63.3,30.13,East,79,8.0,9.0,86,0.00,,---,0.01,VWS V14.01,2013-05-02 00:46:00,
2013-05-01 20:51:00,67.6,62.9,30.13,NE,53,6.0,9.0,85,0.00,,---,0.01,VWS V14.01,2013-05-02 00:51:00,
2013-05-01 20:56:00,67.5,62.8,30.13,East,79,5.0,9.0,85,0.00,,---,0.01,VWS V14.01,2013-05-02 00:56:00,
2013-05-01 21:01:00,67.5,62.8,30.13,NE,56,7.0,11.0,85,0.00,,---,0.01,VWS V14.01,2013-05-02 01:01:00,
2013-05-01 21:06:00,67.3,62.6,30.14,ENE,60,10.0,10.0,85,0.00,,---,0.01,VWS V14.01,2013-05-02 01:06:00,
2013-05-01 21:11:00,66.9,62.6,30.13,NE,53,7.0,12.0,86,0.00,,---,0.01,VWS V14.01,2013-05-02 01:11:00,
2013-05-01 21:16:00,66.3,62.6,30.14,NNE,32,6.0,12.0,88,0.00,,---,0.01,VWS V14.01,2013-05-02 01:16:00,
2013-05-01 21:21:00,65.9,62.6,30.14,NE,37,4.0,8.0,89,0.00,,---,0.01,VWS V14.01,2013-05-02 01:21:00,
2013-05-01 21:26:00,65.7,63.0,30.14,ENE,61,5.0,9.0,91,0.00,,---,0.01,VWS V14.01,2013-05-02 01:26:00,
2013-05-01 21:31:00,65.5,62.5,30.14,NE,46,6.0,10.0,90,0.00,,---,0.01,VWS V14.01,2013-05-02 01:31:00,
2013-05-01 21:36:00,65.4,62.4,30.14,NE,42,10.0,12.0,90,0.00,,---,0.01,VWS V14.01,2013-05-02 01:36:00,
2013-05-01 21:41:00,65.4,62.7,30.14,NE,36,8.0,8.0,91,0.00,,---,0.01,VWS V14.01,2013-05-02 01:41:00,
2013-05-01 21:46:00,65.4,62.7,30.14,NNE,15,4.0,7.0,91,0.00,,---,0.01,VWS V14.01,2013-05-02 01:46:00,
2013-05-01 21:51:00,65.5,62.8,30.14,NNE,33,8.0,9.0,91,0.00,,---,0.01,VWS V14.01,2013-05-02 01:51:00,
2013-05-01 21:56:00,65.5,62.8,30.14,NE,37,7.0,9.0,91,0.00,,---,0.01,VWS V14.01,2013-05-02 01:56:00,
2013-05-01 22:01:00,65.6,62.9,30.14,NNE,32,7.0,9.0,91,0.00,,---,0.01,VWS V14.01,2013-05-02 02:01:00,
2013-05-01 22:06:00,65.6,62.9,30.14,NE,46,7.0,11.0,91,0.00,,---,0.01,VWS V14.01,2013-05-02 02:06:00,
2013-05-01 22:11:00,65.4,62.7,30.14,NE,46,7.0,11.0,91,0.00,,---,0.01,VWS V14.01,2013-05-02 02:11:00,
2013-05-01 22:16:00,65.2,62.8,30.14,NNE,27,10.0,11.0,92,0.00,,---,0.01,VWS V14.01,2013-05-02 02:16:00,
2013-05-01 22:21:00,64.9,62.5,30.14,NNE,22,8.0,11.0,92,0.00,,---,0.01,VWS V14.01,2013-05-02 02:21:00,
2013-05-01 22:26:00,64.8,62.7,30.14,NNE,30,9.0,11.0,93,0.00,,---,0.01,VWS V14.01,2013-05-02 02:26:00,
2013-05-01 22:31:00,64.9,62.8,30.14,NNE,33,9.0,11.0,93,0.00,,---,0.01,VWS V14.01,2013-05-02 02:31:00,
2013-05-01 22:36:00,65.0,62.9,30.14,NE,40,9.0,10.0,93,0.00,,---,0.01,VWS V14.01,2013-05-02 02:36:00,
2013-05-01 22:41:00,65.1,63.0,30.14,NNE,31,7.0,12.0,93,0.00,,---,0.01,VWS V14.01,2013-05-02 02:41:00,
2013-05-01 22:46:00,65.2,62.8,30.14,NE,41,9.0,9.0,92,0.00,,---,0.01,VWS V14.01,2013-05-02 02:46:00,
2013-05-01 22:51:00,65.4,63.0,30.14,NNE,24,7.0,8.0,92,0.00,,---,0.01,VWS V14.01,2013-05-02 02:51:00,
2013-05-01 22:56:00,65.4,63.0,30.14,NE,35,7.0,8.0,92,0.00,,---,0.01,VWS V14.01,2013-05-02 02:56:00,
2013-05-01 23:01:00,65.5,63.1,30.14,NNE,23,8.0,8.0,92,0.00,,---,0.01,VWS V14.01,2013-05-02 03:01:00,
2013-05-01 23:06:00,65.5,63.1,30.14,NE,48,8.0,13.0,92,0.00,,---,0.01,VWS V14.01,2013-05-02 03:06:00,
2013-05-01 23:11:00,65.6,63.2,30.14,NE,37,3.0,8.0,92,0.00,,---,0.01,VWS V14.01,2013-05-02 03:11:00,
2013-05-01 23:16:00,65.6,63.2,30.14,NE,36,7.0,9.0,92,0.00,,---,0.01,VWS V14.01,2013-05-02 03:16:00,
2013-05-01 23:21:00,65.7,63.3,30.14,ENE,65,4.0,10.0,92,0.00,,---,0.01,VWS V14.01,2013-05-02 03:21:00,
2013-05-01 23:26:00,65.8,63.4,30.14,NE,39,7.0,9.0,92,0.00,,---,0.01,VWS V14.01,2013-05-02 03:26:00,
2013-05-01 23:31:00,65.9,63.2,30.13,NE,44,7.0,11.0,91,0.00,,---,0.01,VWS V14.01,2013-05-02 03:31:00,
2013-05-01 23:36:00,66.0,63.3,30.13,NNE,31,8.0,9.0,91,0.00,,---,0.01,VWS V14.01,2013-05-02 03:36:00,
2013-05-01 23:41:00,66.0,63.3,30.13,NE,53,6.0,8.0,91,0.00,,---,0.01,VWS V14.01,2013-05-02 03:41:00,
2013-05-01 23:46:00,66.1,63.4,30.13,NE,50,5.0,11.0,91,0.00,,---,0.01,VWS V14.01,2013-05-02 03:46:00,
2013-05-01 23:51:00,66.2,63.5,30.13,ENE,60,7.0,7.0,91,0.00,,---,0.01,VWS V14.01,2013-05-02 03:51:00,
2013-05-01 23:56:00,66.3,63.3,30.13,NE,41,6.0,9.0,90,0.00,,---,0.01,VWS V14.01,2013-05-02 03:56:00,